User: anonymous   Login
Location: Unspecified
(0.0000°N, 0.0000°E)
Time: 00:14:53
(UTC+00:00)
Language:

GEOS 3 - Orbit

View from above orbital plane
View from above orbital plane
View from above satellite
View from above satellite

Ground track
Ground track

The orbit data is extracted from the following two-line orbital elements,

1  7734U 75027A   17326.59353287 -.00000142 +00000-0 +16222-4 0  9998
2  7734 114.9953 339.1016 0019593 304.3324 055.5900 14.18611169205429
Epoch (UTC): 22 November 2017 14:14:41
Eccentricity: 0.0019593
inclination: 114.9953°
perigee height: 816 km
apogee height: 844 km
right ascension of ascending node: 339.1016°
argument of perigee: 304.3324°
revolutions per day: 14.18611169
mean anomaly at epoch: 55.5900°
orbit number at epoch: 20542

The dashed part of the orbit path shows where the satellite is in the earth's shadow,  

DLR